DateTimeUTC,F1_A11,F1_S11,BsB_S11,BsG_S11,BsR_S11,BbsB_S11,BbsG_S11,BbsR_S11,BaB_A11,BaG_A11,BaR_A11,Tu_S11,T_S11,Uu_S11,U_S11,P_S11,T1_A11
2021-12-18T20:00:00Z,00000200,21000000,,,,,,,0000.22,-000.07,-000.15,18.4,25.3,,00.0,0667.3,31.0
2021-12-18T20:01:00Z,00000200,21000000,,,,,,,0000.42,0000.39,0000.55,18.4,25.3,,00.0,0667.3,31.0
2021-12-18T20:02:00Z,00000200,21000000,,,,,,,0000.13,0000.40,0000.22,18.4,25.3,,00.0,0667.3,31.0
2021-12-18T20:03:00Z,00000200,61000000,,,,,,,0000.34,-000.00,0000.11,18.4,25.3,,00.0,0667.3,31.0
2021-12-18T20:04:00Z,00000200,41000000,-000.01,0000.60,0000.32,0000.21,0000.32,0000.10,0000.30,0000.53,0000.25,18.7,25.2,,00.0,0668.2,31.0
2021-12-18T20:05:00Z,00000200,01000000,0000.05,0000.25,0000.49,-000.06,0000.15,-000.09,0000.47,0000.61,0000.34,18.8,25.2,,00.0,0668.2,31.0
2021-12-18T20:06:00Z,00000200,01000000,0000.69,0000.58,0000.02,-000.43,0000.16,0000.19,0000.31,0000.39,0000.29,18.9,25.2,,00.0,0668.3,31.0
2021-12-18T20:07:00Z,00000200,01000000,0000.23,0000.67,0000.47,-000.18,0000.31,0000.13,0000.50,0000.19,0000.17,18.9,25.2,,00.0,0668.2,31.0
2021-12-18T20:08:00Z,00000200,01000000,0000.55,0000.19,0000.01,-000.17,0000.32,-000.21,0000.38,0000.61,0000.52,19.0,25.2,,00.0,0668.2,31.0
2021-12-18T20:09:00Z,00000200,01000000,0000.36,0000.56,0000.45,-000.49,0000.14,0000.42,0000.04,0000.12,-000.03,19.0,25.2,,00.0,0668.3,31.0
2021-12-18T20:10:00Z,00000200,01000000,0000.22,0000.27,0000.13,-000.36,0000.34,0000.00,0000.20,0000.13,0000.09,19.1,25.3,,00.0,0668.2,31.0
2021-12-18T20:11:00Z,00000200,01000000,0000.24,0000.47,0000.54,-000.14,0000.21,0000.12,0000.72,0000.34,0000.33,19.0,25.3,,00.0,0668.2,31.0
2021-12-18T20:12:00Z,00000200,01000000,0000.22,0000.20,0000.22,0000.30,-000.03,0000.20,0000.07,0000.16,0000.21,19.0,25.3,,00.0,0668.2,31.0
2021-12-18T20:13:00Z,00000200,01000000,0000.09,0000.66,0000.05,-000.52,0000.18,0000.14,0000.48,0000.21,0000.31,19.0,25.3,,00.0,0668.2,31.0
2021-12-18T20:14:00Z,00000200,01000000,0000.49,0000.41,-000.08,0000.81,0000.03,-000.08,0000.35,0000.63,0000.24,19.1,25.3,,00.0,0668.2,31.0
2021-12-18T20:15:00Z,00000200,01000000,0000.61,0000.28,0000.39,0000.25,0000.30,0000.04,0000.30,0000.07,0000.37,19.1,25.3,,00.0,0668.2,31.0
2021-12-18T20:16:00Z,00000200,01000000,0000.88,0000.65,0000.56,-000.20,0000.15,0000.17,0000.49,0000.49,0000.05,19.1,25.3,,00.0,0668.3,31.0
2021-12-18T20:17:00Z,00000200,01000000,0000.77,0000.42,0000.68,-000.14,0000.35,0000.17,0000.12,0000.25,0000.33,19.2,25.3,,00.0,0668.3,31.0
2021-12-18T20:18:00Z,00000200,01000000,0000.62,0000.57,0000.57,-000.58,0000.20,-000.20,0000.14,0000.08,0000.23,19.2,25.4,,00.0,0668.3,31.0
2021-12-18T20:19:00Z,00000200,01000000,0000.31,0000.40,0000.24,0000.33,0000.45,0000.01,0000.59,0000.44,0000.20,19.2,25.4,,00.0,0668.3,31.1
2021-12-18T20:20:00Z,00000200,01000000,0000.98,0000.44,0000.25,-000.13,-000.14,0000.09,0000.29,0000.42,0000.00,19.3,25.4,,00.0,0668.3,31.1
2021-12-18T20:21:00Z,00000200,01000000,0000.47,0000.30,0000.39,0000.41,0000.18,0000.00,0000.27,0000.17,0000.42,19.3,25.4,,00.0,0668.3,31.1
2021-12-18T20:22:00Z,00000200,01000000,0000.99,0000.38,0000.27,-000.23,0000.02,-000.17,0000.24,0000.27,0000.28,19.4,25.4,,00.0,0668.3,31.1
2021-12-18T20:23:00Z,00000200,01000000,-000.15,0000.39,-000.15,0000.10,-000.18,-000.21,0000.65,0000.42,0000.36,19.4,25.5,,00.0,0668.2,31.1
2021-12-18T20:24:00Z,00000200,01000000,0000.79,0000.54,0000.03,-000.22,0000.10,0000.31,0000.24,0000.39,0000.03,19.3,25.5,,00.0,0668.2,31.1
2021-12-18T20:25:00Z,00000200,01000000,0001.00,0000.22,0000.31,-000.18,0000.17,0000.01,0000.34,0000.35,0000.42,19.2,25.5,,00.0,0668.2,31.0
2021-12-18T20:26:00Z,00000200,01000000,0000.31,0000.38,0000.34,-000.04,0000.29,0000.00,-000.04,0000.11,0000.30,19.2,25.4,,00.0,0668.2,31.0
2021-12-18T20:27:00Z,00000200,01000000,-000.01,0000.26,0000.32,0000.47,0000.31,0000.03,0000.24,0000.19,0000.00,19.1,25.4,,00.0,0668.2,31.0
2021-12-18T20:28:00Z,00000200,01000000,0001.06,0000.70,0000.13,-000.11,0000.17,0000.14,0000.54,0000.38,-000.01,19.1,25.4,,00.0,0668.2,31.0
2021-12-18T20:29:00Z,00000200,01000000,0000.50,0000.31,-000.01,-000.31,0000.42,-000.11,0000.19,0000.03,0000.34,19.2,25.4,,00.0,0668.2,31.0
2021-12-18T20:30:00Z,00000200,01000000,0000.51,0000.65,0000.39,-000.77,0000.40,0000.23,0000.49,0000.61,0000.58,19.2,25.4,,00.0,0668.2,31.0
2021-12-18T20:31:00Z,00000200,01000000,0000.25,0000.63,0000.40,0000.33,0000.15,-000.08,0000.55,0000.23,-000.24,19.2,25.4,,00.0,0668.2,31.0
2021-12-18T20:32:00Z,00000200,01000000,0000.47,0000.66,0000.32,0000.19,-000.04,-000.18,0000.07,0000.55,0000.73,19.3,25.4,,00.0,0668.2,31.0
2021-12-18T20:33:00Z,00000200,01000000,0000.56,0000.38,-000.14,-000.02,0000.09,0000.20,0000.72,0000.46,0000.10,19.3,25.5,,00.0,0668.2,31.0
2021-12-18T20:34:00Z,00000200,01000000,0000.34,0001.06,0000.34,-000.06,0000.24,0000.07,0000.01,-000.24,0000.25,19.4,25.5,,00.0,0668.2,31.1
2021-12-18T20:35:00Z,00000200,01000000,0000.10,0000.29,0000.26,-000.28,0000.26,-000.07,0000.49,0000.25,0000.06,19.4,25.5,,00.0,0668.2,31.1
2021-12-18T20:36:00Z,00000200,01000000,0000.93,0000.42,0000.29,-000.17,-000.17,-000.11,0000.04,0000.71,0000.39,19.4,25.6,,00.0,0668.2,31.1
2021-12-18T20:37:00Z,00000200,01000000,0000.68,0000.67,0000.23,-000.19,0000.13,-000.33,0000.62,-000.03,0000.14,19.5,25.6,,00.0,0668.2,31.1
2021-12-18T20:38:00Z,00000200,01000000,-000.25,0000.21,0000.05,-000.61,-000.19,0000.00,0000.47,0000.79,0000.21,19.5,25.6,,00.0,0668.2,31.1
2021-12-18T20:39:00Z,00000200,01000000,0000.34,0000.28,0000.40,0000.16,0000.18,0000.12,0000.01,0000.27,0000.51,19.4,25.6,,00.0,0668.2,31.0
2021-12-18T20:40:00Z,00000200,01000000,0000.52,0000.33,0000.36,0000.22,0000.46,0000.33,0000.72,0000.46,0000.10,19.3,25.5,,00.0,0668.2,31.0
2021-12-18T20:41:00Z,00000200,01000000,0000.24,0000.79,-000.05,-000.43,0000.29,0000.03,0000.05,-000.03,0000.14,19.3,25.5,,00.0,0668.2,31.0
2021-12-18T20:42:00Z,00000200,01000000,0000.62,0000.42,0000.15,-000.46,0000.16,-000.10,0000.26,-000.13,-000.05,19.2,25.5,,00.0,0668.2,31.0
2021-12-18T20:43:00Z,00000200,01000000,0000.99,0000.54,0000.45,-000.36,0000.41,0000.24,0000.41,0000.53,0000.55,19.2,25.5,,00.0,0668.2,31.0
2021-12-18T20:44:00Z,00000200,01000000,-000.02,0000.13,0000.02,-000.06,-000.02,-000.01,0000.08,0000.07,0000.17,19.2,25.5,,00.0,0668.2,31.0
2021-12-18T20:45:00Z,00000200,01000000,-000.78,0000.65,-000.06,0000.17,-000.06,0000.14,0000.23,0000.74,0000.16,19.3,25.5,,00.0,0668.2,31.0
2021-12-18T20:46:00Z,00000200,01000000,0000.68,0000.61,0000.40,0000.03,0000.01,-000.22,0000.56,0000.31,0000.14,19.3,25.5,,00.0,0668.2,31.0
2021-12-18T20:47:00Z,00000200,01000000,0000.38,0000.50,0000.06,0000.04,-000.02,0000.20,0000.40,0000.43,0000.47,19.4,25.5,,00.0,0668.2,31.0
2021-12-18T20:48:00Z,00000200,01000000,-000.13,0000.44,0000.40,-000.47,0000.03,0000.19,0000.23,0000.10,0000.27,19.4,25.6,,00.0,0668.2,31.1
2021-12-18T20:49:00Z,00000200,01000000,0000.26,0000.32,0000.12,0000.48,0000.18,0000.23,0000.31,0000.22,0000.37,19.4,25.6,,00.0,0668.2,31.1
2021-12-18T20:50:00Z,00000200,01000000,0000.02,0000.42,0000.40,0000.44,0000.21,0000.10,0000.40,0000.46,0000.04,19.4,25.6,,00.0,0668.1,31.1
2021-12-18T20:51:00Z,00000200,01000000,0000.04,0000.40,-000.08,-000.05,0000.21,0000.07,0000.21,0000.21,0000.21,19.4,25.6,,00.0,0668.1,31.0
2021-12-18T20:52:00Z,00000200,01000000,0000.29,0000.64,0000.26,-000.19,-000.14,0000.16,0000.32,0000.25,0000.21,19.3,25.6,,00.0,0668.1,31.0
2021-12-18T20:53:00Z,00000200,01000000,0000.62,0000.67,0000.53,0000.13,0000.17,0000.10,0000.43,0000.26,-000.09,19.2,25.5,,00.0,0668.1,31.0
2021-12-18T20:54:00Z,00000200,01000000,0000.55,0000.27,0000.27,-000.25,0000.36,0000.20,0000.32,0000.67,0000.68,19.1,25.5,,00.0,0668.1,31.0
2021-12-18T20:55:00Z,00000200,01000000,0000.24,0000.59,0000.38,-000.16,0000.04,-000.03,0000.30,-000.21,0000.12,19.1,25.4,,00.0,0668.1,31.0
2021-12-18T20:56:00Z,00000200,01000000,0000.42,0000.39,0000.20,0000.33,-000.07,-000.08,0000.25,0000.31,-000.01,19.0,25.4,,00.0,0668.0,31.0
2021-12-18T20:57:00Z,00000200,41000000,,,,,,,-001.10,-000.96,-000.29,19.0,25.4,,00.0,0668.1,31.0
2021-12-18T20:58:00Z,00000200,61000000,,,,,,,0000.58,0000.42,-000.02,18.7,25.5,,00.0,0667.0,31.0
2021-12-18T20:59:00Z,00000200,21000000,,,,,,,0000.22,0000.11,0000.23,18.7,25.6,,00.0,0667.0,31.0
